This is the latest recevied weather packets stored in our database for station/object KB3KBR-WX. If no packets are shown the sender has not sent any weather packets the latest 10 day(s).
| Time | Temp. | Humidity | Pressure | Rain* | Wind** | Luminosity | Snow |
|---|---|---|---|---|---|---|---|
| 1778070330 | 7.78° C | 95% | 1004.7 hPa | 1.02 mm | - | - | - |
| 1778070031 | 7.78° C | 94% | 1004.6 hPa | 0.76 mm | - | - | - |
| 1778069730 | 7.78° C | 94% | 1005 hPa | 0.76 mm | - | - | - |
| 1778069400 | 7.78° C | 95% | 1004.5 hPa | 1.02 mm | - | - | - |
| 1778069070 | 7.78° C | 94% | 1004.4 hPa | 1.02 mm | - | - | - |
| 1778068771 | 7.78° C | 95% | 1004.4 hPa | 1.02 mm | - | - | - |
| 1778068440 | 7.78° C | 94% | 1004.3 hPa | 1.27 mm | - | - | - |
| 1778068140 | 7.78° C | 95% | 1004.1 hPa | 1.52 mm | - | - | - |
| 1778067910 | 7.78° C | 95% | 1004.2 hPa | 1.78 mm | - | - | - |
| 1778067810 | 7.78° C | 95% | 1004.2 hPa | 1.78 mm | - | - | - |
| 1778067613 | 7.78° C | 94% | 1004 hPa | 2.03 mm | - | - | - |
| 1778067510 | 7.78° C | 94% | 1004 hPa | 2.03 mm | - | - | - |
| 1778067310 | 7.78° C | 94% | 1003.3 hPa | 2.29 mm | - | - | - |
| 1778067180 | 7.78° C | 94% | 1003.3 hPa | 2.29 mm | - | - | - |
| 1778066880 | 7.78° C | 94% | 1003.3 hPa | 2.79 mm | - | - | - |
| 1778066707 | 7.78° C | 94% | 1003.8 hPa | 2.54 mm | - | - | - |
| 1778066580 | 7.78° C | 94% | 1003.8 hPa | 2.54 mm | - | - | - |
| 1778066250 | 8.33° C | 94% | 1003.8 hPa | 3.05 mm | - | - | - |
| 1778065950 | 8.33° C | 94% | 1003.7 hPa | 2.79 mm | - | - | - |
| 1778065620 | 8.33° C | 94% | 1003.7 hPa | 3.05 mm | - | - | - |
| 1778065366 | 8.33° C | 94% | 1003.8 hPa | 3.05 mm | - | - | - |
| 1778065290 | 8.33° C | 94% | 1003.8 hPa | 3.05 mm | - | - | - |
| 1778065205 | 8.33° C | 94% | 1003.8 hPa | 3.05 mm | - | - | - |
| 1778064990 | 8.33° C | 94% | 1003.8 hPa | 3.05 mm | - | - | - |
| 1778064660 | 8.33° C | 94% | 1003.8 hPa | 3.05 mm | - | - | - |
* Rain latest hour (hover to see other rain measurements)
** Current wind speed in m/s (hover to see current wind gust speed)